Hourly Data Report for November 28, 2012

BAGOTVILLE A
QUEBEC

48°20'00.000" N
71°00'00.000" W
159.10 m
7060400
71727
YBG

Download Data

Hourly Data (November 2012)
Hourly Data Report for November 28, 2012
TIME
LST
Temp Definition
°C
Dew Point Definition
°C
Rel Hum Definition
%
Precip. Amount Definition
mm

Wind Dir Definition
10's deg

Wind Spd Definition
km/h
Visibility Definition
km
Stn Press Definition
kPa
Hmdx Definition


Wind Chill Definition


Weather Definition


00:00 -12.3 -15.2 79   19 11 24.1 100.49   -18 Mainly Clear
01:00 -12.0 -14.8 80   14 4 24.1 100.50   -15 Mostly Cloudy
02:00 -11.4 -14.1 80   9 6 24.1 100.52   -15 Mostly Cloudy
03:00 -11.1 -14.2 78   14 4 24.1 100.48   -14 Mostly Cloudy
04:00 -10.7 -13.7 79   14 13 24.1 100.42   -17 Mainly Clear
05:00 -11.0 -14.1 78   14 11 24.1 100.37   -17 Mostly Cloudy
06:00 -10.2 -13.5 77   13 11 24.1 100.34   -16 Mostly Cloudy
07:00 -10.5 -13.9 76   13 11 40.2 100.32   -16 Mostly Cloudy
08:00 -9.6 -12.8 77   13 9 40.2 100.31   -14 Mostly Cloudy
09:00 -8.2 -12.8 69   9 11 40.2 100.26   -13 Cloudy
10:00 -6.3 -11.1 69   9 15 40.2 100.20   -12 Cloudy
11:00 -4.7 -9.7 68   9 22 40.2 100.07   -12 Cloudy
12:00 -3.2 -7.6 72   9 22 40.2 99.95   -10 Cloudy
13:00 -2.5 -8.1 65   9 28 40.2 99.83   -10 Cloudy
14:00 -2.5 -7.4 69   9 22 40.2 99.76   -9 Cloudy
15:00 -2.6 -7.2 71   9 20 40.2 99.70   -9 Cloudy
16:00 -2.4 -6.6 73   9 20 40.2 99.66   -8 Cloudy
17:00 -2.6 -7.2 71   10 17 24.1 99.63   -8 Mostly Cloudy
18:00 -2.7 -7.3 71   10 15 24.1 99.62   -8 Cloudy
19:00 -2.9 -6.9 74   11 11 24.1 99.59   -7 Cloudy
20:00 -2.8 -7.1 72   9 17 24.1 99.54   -8 Cloudy
21:00 -3.0 -6.4 77   9 15 24.1 99.47   -8 Cloudy
22:00 -3.1 -6.2 79   10 13 24.1 99.40   -8 Cloudy
23:00 -3.4 -5.6 85   29 37 1.6 99.48   -12 Snow

Notes on Data Quality.

Legend

  • E = Estimated
  • M = Missing
  • NA = Not Available*
  • [empty] = Indicates an unobserved value
Date modified: